Time,TemperatureF,DewpointF,PressureIn,WindDirection,WindDirectionDegrees,WindSpeedMPH,WindSpeedGustMPH,Humidity,HourlyPrecipIn,Conditions,Clouds,dailyrainin,SoftwareType,DateUTC
2013-05-06 00:10:00,46.6,40.8,29.90,West,270,0.0,-999.0,80,-99.99,,,0.00,Acu-Link.com,2013-05-06 05:10:00,
2013-05-06 00:25:00,46.4,41.5,29.90,West,270,0.0,-999.0,83,-99.99,,,0.00,Acu-Link.com,2013-05-06 05:25:00,
2013-05-06 00:41:00,46.0,41.1,29.91,West,270,0.0,-999.0,83,-99.99,,,0.00,Acu-Link.com,2013-05-06 05:41:00,
2013-05-06 00:56:00,45.9,41.6,29.89,West,270,0.0,-999.0,85,-99.99,,,0.00,Acu-Link.com,2013-05-06 05:56:00,
2013-05-06 01:11:00,45.9,42.0,29.89,West,270,0.0,-999.0,86,-99.99,,,0.00,Acu-Link.com,2013-05-06 06:11:00,
2013-05-06 01:26:00,45.9,42.3,29.88,West,270,0.0,-999.0,87,-99.99,,,0.00,Acu-Link.com,2013-05-06 06:26:00,
2013-05-06 01:41:00,45.9,42.5,29.93,West,270,0.0,-999.0,88,-99.99,,,0.00,Acu-Link.com,2013-05-06 06:41:00,
2013-05-06 01:57:00,45.5,42.2,29.88,West,270,0.0,-999.0,88,-99.99,,,0.00,Acu-Link.com,2013-05-06 06:57:00,
2013-05-06 02:12:00,45.3,42.0,29.92,West,270,0.0,-999.0,88,-99.99,,,0.00,Acu-Link.com,2013-05-06 07:12:00,
2013-05-06 02:27:00,45.1,41.8,29.91,West,270,0.0,-999.0,88,-99.99,,,0.00,Acu-Link.com,2013-05-06 07:27:00,
2013-05-06 02:42:00,45.3,42.3,29.91,North,0,0.0,-999.0,89,-99.99,,,0.00,Acu-Link.com,2013-05-06 07:42:00,
2013-05-06 02:57:00,45.5,42.4,29.87,West,270,0.0,-999.0,89,-99.99,,,0.00,Acu-Link.com,2013-05-06 07:57:00,
2013-05-06 03:13:00,45.5,42.4,29.90,West,270,0.0,-999.0,89,-99.99,,,0.00,Acu-Link.com,2013-05-06 08:13:00,
2013-05-06 03:28:00,45.3,42.3,29.88,West,270,0.0,-999.0,89,-99.99,,,0.00,Acu-Link.com,2013-05-06 08:28:00,
2013-05-06 03:43:00,45.5,42.7,29.88,West,270,0.0,-999.0,90,-99.99,,,0.00,Acu-Link.com,2013-05-06 08:43:00,
2013-05-06 03:58:00,45.3,42.5,29.89,NW,315,0.0,-999.0,90,-99.99,,,0.00,Acu-Link.com,2013-05-06 08:58:00,
2013-05-06 04:13:00,45.3,42.5,29.91,NW,315,0.0,-999.0,90,-99.99,,,0.00,Acu-Link.com,2013-05-06 09:13:00,
2013-05-06 04:29:00,45.1,42.3,29.91,NW,315,0.0,-999.0,90,-99.99,,,0.00,Acu-Link.com,2013-05-06 09:29:00,
2013-05-06 04:44:00,45.0,42.2,29.89,NW,315,0.0,-999.0,90,-99.99,,,0.00,Acu-Link.com,2013-05-06 09:44:00,
2013-05-06 04:59:00,45.0,42.2,29.88,NW,315,0.0,-999.0,90,-99.99,,,0.00,Acu-Link.com,2013-05-06 09:59:00,
2013-05-06 05:14:00,45.0,42.2,29.89,WNW,292,0.0,-999.0,90,-99.99,,,0.00,Acu-Link.com,2013-05-06 10:14:00,
2013-05-06 05:29:00,45.1,42.6,29.89,West,270,0.0,-999.0,91,-99.99,,,0.00,Acu-Link.com,2013-05-06 10:29:00,
2013-05-06 05:45:00,45.3,42.8,29.88,West,270,0.0,-999.0,91,-99.99,,,0.00,Acu-Link.com,2013-05-06 10:45:00,
2013-05-06 06:00:00,45.0,42.5,29.89,WNW,292,0.0,-999.0,91,-99.99,,,0.00,Acu-Link.com,2013-05-06 11:00:00,
2013-05-06 06:15:00,45.0,42.5,29.93,West,270,0.0,-999.0,91,-99.99,,,0.00,Acu-Link.com,2013-05-06 11:15:00,
2013-05-06 06:30:00,44.8,42.3,29.89,West,270,0.0,-999.0,91,-99.99,,,0.00,Acu-Link.com,2013-05-06 11:30:00,
2013-05-06 06:46:00,45.1,42.6,29.92,East,90,0.0,-999.0,91,-99.99,,,0.00,Acu-Link.com,2013-05-06 11:46:00,
2013-05-06 07:01:00,47.1,44.6,29.93,NW,315,2.2,-999.0,91,-99.99,,,0.00,Acu-Link.com,2013-05-06 12:01:00,
2013-05-06 07:16:00,48.2,45.7,29.93,East,90,0.0,-999.0,91,-99.99,,,0.00,Acu-Link.com,2013-05-06 12:16:00,
2013-05-06 07:31:00,51.3,48.2,29.91,SW,225,0.0,-999.0,89,-99.99,,,0.00,Acu-Link.com,2013-05-06 12:31:00,
2013-05-06 07:46:00,56.1,47.2,29.91,WNW,292,0.0,-999.0,72,-99.99,,,0.00,Acu-Link.com,2013-05-06 12:46:00,
2013-05-06 08:02:00,58.6,46.5,29.90,West,270,0.0,-999.0,64,-99.99,,,0.00,Acu-Link.com,2013-05-06 13:02:00,
2013-05-06 08:17:00,60.8,45.0,29.96,South,180,2.2,-999.0,56,-99.99,,,0.00,Acu-Link.com,2013-05-06 13:17:00,
2013-05-06 08:32:00,60.3,43.6,29.94,SW,225,4.7,-999.0,54,-99.99,,,0.00,Acu-Link.com,2013-05-06 13:32:00,
2013-05-06 08:47:00,61.7,42.3,29.94,West,270,7.8,-999.0,49,-99.99,,,0.00,Acu-Link.com,2013-05-06 13:47:00,
2013-05-06 09:02:00,61.9,42.0,29.96,NNW,337,5.8,-999.0,48,-99.99,,,0.00,Acu-Link.com,2013-05-06 14:02:00,
2013-05-06 09:18:00,63.1,41.4,29.96,WNW,292,5.3,-999.0,45,-99.99,,,0.00,Acu-Link.com,2013-05-06 14:18:00,
2013-05-06 09:33:00,64.6,42.8,29.95,NNW,337,4.7,-999.0,45,-99.99,,,0.00,Acu-Link.com,2013-05-06 14:33:00,
2013-05-06 09:48:00,65.1,42.6,29.92,NNW,337,6.8,-999.0,44,-99.99,,,0.00,Acu-Link.com,2013-05-06 14:48:00,
2013-05-06 10:03:00,67.5,43.6,29.94,NW,315,7.8,-999.0,42,-99.99,,,0.00,Acu-Link.com,2013-05-06 15:03:00,
2013-05-06 10:18:00,68.4,44.4,29.96,West,270,4.2,-999.0,42,-99.99,,,0.00,Acu-Link.com,2013-05-06 15:18:00,
2013-05-06 10:34:00,68.0,43.4,29.95,WNW,292,2.7,-999.0,41,-99.99,,,0.00,Acu-Link.com,2013-05-06 15:34:00,
2013-05-06 10:49:00,69.3,43.9,29.93,WSW,247,2.2,-999.0,40,-99.99,,,0.00,Acu-Link.com,2013-05-06 15:49:00,
2013-05-06 11:04:00,70.0,43.9,29.90,WSW,247,6.8,-999.0,39,-99.99,,,0.00,Acu-Link.com,2013-05-06 16:04:00,
2013-05-06 11:19:00,71.2,44.3,29.90,West,270,3.7,-999.0,38,-99.99,,,0.00,Acu-Link.com,2013-05-06 16:19:00,
2013-05-06 11:35:00,72.0,44.3,29.92,West,270,3.7,-999.0,37,-99.99,,,0.00,Acu-Link.com,2013-05-06 16:35:00,
2013-05-06 11:50:00,72.0,43.6,29.94,NW,315,6.3,-999.0,36,-99.99,,,0.00,Acu-Link.com,2013-05-06 16:50:00,
2013-05-06 12:05:00,71.4,43.0,29.89,SW,225,4.7,-999.0,36,-99.99,,,0.00,Acu-Link.com,2013-05-06 17:05:00,
2013-05-06 12:20:00,71.4,43.0,29.87,NW,315,5.8,-999.0,36,-99.99,,,0.00,Acu-Link.com,2013-05-06 17:20:00,
2013-05-06 12:35:00,73.4,43.3,29.88,West,270,4.7,-999.0,34,-99.99,,,0.00,Acu-Link.com,2013-05-06 17:35:00,
2013-05-06 12:51:00,73.4,44.1,29.88,NNW,337,4.2,-999.0,35,-99.99,,,0.00,Acu-Link.com,2013-05-06 17:51:00,
2013-05-06 13:06:00,73.9,43.8,29.89,WNW,292,3.2,-999.0,34,-99.99,,,0.00,Acu-Link.com,2013-05-06 18:06:00,
2013-05-06 13:21:00,74.7,44.5,29.89,North,0,7.3,-999.0,34,-99.99,,,0.00,Acu-Link.com,2013-05-06 18:21:00,
2013-05-06 13:36:00,74.8,44.5,29.85,SW,225,6.3,-999.0,34,-99.99,,,0.00,Acu-Link.com,2013-05-06 18:36:00,
2013-05-06 13:51:00,75.9,43.9,29.89,NW,315,6.3,-999.0,32,-99.99,,,0.00,Acu-Link.com,2013-05-06 18:51:00,
2013-05-06 14:07:00,76.3,44.3,29.87,West,270,9.9,-999.0,32,-99.99,,,0.00,Acu-Link.com,2013-05-06 19:07:00,
2013-05-06 14:22:00,76.8,44.7,29.83,SSW,202,5.8,-999.0,32,-99.99,,,0.00,Acu-Link.com,2013-05-06 19:22:00,
2013-05-06 14:37:00,76.8,43.9,29.87,West,270,6.3,-999.0,31,-99.99,,,0.00,Acu-Link.com,2013-05-06 19:37:00,
2013-05-06 14:53:00,77.0,44.9,29.85,West,270,3.7,-999.0,32,-99.99,,,0.00,Acu-Link.com,2013-05-06 19:53:00,
2013-05-06 15:08:00,77.4,44.4,29.83,WNW,292,6.3,-999.0,31,-99.99,,,0.00,Acu-Link.com,2013-05-06 20:08:00,
2013-05-06 15:23:00,77.9,44.8,29.82,West,270,5.8,-999.0,31,-99.99,,,0.00,Acu-Link.com,2013-05-06 20:23:00,
2013-05-06 15:38:00,77.4,45.2,29.84,North,0,4.7,-999.0,32,-99.99,,,0.00,Acu-Link.com,2013-05-06 20:38:00,
2013-05-06 15:53:00,78.1,45.8,29.78,NNW,337,10.9,-999.0,32,-99.99,,,0.00,Acu-Link.com,2013-05-06 20:53:00,
2013-05-06 16:09:00,77.4,45.2,29.80,WSW,247,3.7,-999.0,32,-99.99,,,0.00,Acu-Link.com,2013-05-06 21:09:00,
2013-05-06 16:24:00,77.5,45.3,29.77,NW,315,4.7,-999.0,32,-99.99,,,0.00,Acu-Link.com,2013-05-06 21:24:00,
2013-05-06 16:39:00,78.8,46.4,29.81,WNW,292,5.3,-999.0,32,-99.99,,,0.00,Acu-Link.com,2013-05-06 21:39:00,
2013-05-06 16:54:00,79.0,45.8,29.76,NNW,337,13.0,-999.0,31,-99.99,,,0.00,Acu-Link.com,2013-05-06 21:54:00,
2013-05-06 17:09:00,78.4,46.1,29.78,NE,45,5.3,-999.0,32,-99.99,,,0.00,Acu-Link.com,2013-05-06 22:09:00,
2013-05-06 17:25:00,79.3,46.9,29.76,NNW,337,4.7,-999.0,32,-99.99,,,0.00,Acu-Link.com,2013-05-06 22:25:00,
2013-05-06 17:40:00,77.4,46.0,29.77,West,270,6.8,-999.0,33,-99.99,,,0.00,Acu-Link.com,2013-05-06 22:40:00,
2013-05-06 17:55:00,76.5,46.8,29.76,SW,225,2.2,-999.0,35,-99.99,,,0.00,Acu-Link.com,2013-05-06 22:55:00,
2013-05-06 18:10:00,77.2,47.4,29.79,WSW,247,3.7,-999.0,35,-99.99,,,0.00,Acu-Link.com,2013-05-06 23:10:00,
2013-05-06 18:26:00,77.0,48.0,29.76,North,0,2.7,-999.0,36,-99.99,,,0.00,Acu-Link.com,2013-05-06 23:26:00,
2013-05-06 18:41:00,75.0,47.7,29.79,NNW,337,5.3,-999.0,38,-99.99,,,0.00,Acu-Link.com,2013-05-06 23:41:00,
2013-05-06 18:56:00,74.1,48.2,29.79,NNW,337,2.7,-999.0,40,-99.99,,,0.00,Acu-Link.com,2013-05-06 23:56:00,
2013-05-06 19:11:00,73.4,47.6,29.79,NW,315,4.2,-999.0,40,-99.99,,,0.00,Acu-Link.com,2013-05-07 00:11:00,
2013-05-06 19:26:00,73.0,47.2,29.78,NW,315,3.2,-999.0,40,-99.99,,,0.00,Acu-Link.com,2013-05-07 00:26:00,
2013-05-06 19:42:00,72.1,48.4,29.82,SW,225,0.0,-999.0,43,-99.99,,,0.00,Acu-Link.com,2013-05-07 00:42:00,
2013-05-06 19:57:00,70.9,49.1,29.85,West,270,0.0,-999.0,46,-99.99,,,0.00,Acu-Link.com,2013-05-07 00:57:00,
2013-05-06 20:12:00,69.4,48.8,29.80,WNW,292,0.0,-999.0,48,-99.99,,,0.00,Acu-Link.com,2013-05-07 01:12:00,
2013-05-06 20:27:00,68.4,49.0,29.84,SW,225,0.0,-999.0,50,-99.99,,,0.00,Acu-Link.com,2013-05-07 01:27:00,
2013-05-06 20:42:00,67.1,48.9,29.86,SSW,202,0.0,-999.0,52,-99.99,,,0.00,Acu-Link.com,2013-05-07 01:42:00,
2013-05-06 20:58:00,65.8,49.2,29.83,WSW,247,0.0,-999.0,55,-99.99,,,0.00,Acu-Link.com,2013-05-07 01:58:00,
2013-05-06 21:13:00,64.8,49.7,29.81,WSW,247,0.0,-999.0,58,-99.99,,,0.00,Acu-Link.com,2013-05-07 02:13:00,
2013-05-06 21:28:00,63.7,49.6,29.84,SW,225,0.0,-999.0,60,-99.99,,,0.00,Acu-Link.com,2013-05-07 02:28:00,
2013-05-06 21:43:00,62.6,50.7,29.87,WNW,292,0.0,-999.0,65,-99.99,,,0.00,Acu-Link.com,2013-05-07 02:43:00,
2013-05-06 21:58:00,62.1,50.6,29.87,West,270,0.0,-999.0,66,-99.99,,,0.00,Acu-Link.com,2013-05-07 02:58:00,
2013-05-06 22:14:00,61.5,50.0,29.84,West,270,0.0,-999.0,66,-99.99,,,0.00,Acu-Link.com,2013-05-07 03:14:00,
2013-05-06 22:29:00,61.2,50.9,29.83,WSW,247,0.0,-999.0,69,-99.99,,,0.00,Acu-Link.com,2013-05-07 03:29:00,
2013-05-06 22:44:00,60.4,51.3,29.89,WSW,247,0.0,-999.0,72,-99.99,,,0.00,Acu-Link.com,2013-05-07 03:44:00,
2013-05-06 22:59:00,60.3,51.2,29.86,SSE,157,0.0,-999.0,72,-99.99,,,0.00,Acu-Link.com,2013-05-07 03:59:00,
2013-05-06 23:15:00,59.9,51.6,29.87,South,180,0.0,-999.0,74,-99.99,,,0.00,Acu-Link.com,2013-05-07 04:15:00,
2013-05-06 23:30:00,59.7,51.8,29.84,NE,45,1.1,-999.0,75,-99.99,,,0.00,Acu-Link.com,2013-05-07 04:30:00,
2013-05-06 23:45:00,59.5,51.9,29.90,South,180,0.0,-999.0,76,-99.99,,,0.00,Acu-Link.com,2013-05-07 04:45:00,